sat.trackr.live / text

‹ back to catalog

ONEWEB-0274

NORAD 48992 · 2021-060AB

PAYLOAD ACTIVE UNKNOWN

§ Identity

Operator
Country
UK
Launch date
2021-07-01
Launch site
VOSTO
Launch vehicle
Mass (kg)
RCS (m²)

Purposes: comms

External: N2YO · Heavens-Above · Gunter

§ Orbital elements

Epoch: 2026-05-25T05:07:19.239168Z

Period
109.37 min
Inclination
87.9096°
Eccentricity
0.0002194
Mean motion
13.16595508 rev/d
Perigee alt
1,196.1 km
Apogee alt
1,199.4 km
Semi-major
7,575.9 km
B*
2.5543e-5
RAAN
233.3496°
Arg perigee
92.9928°
Mean anomaly
267.1454°
Rev number
23,660

§ Raw data

ONEWEB-02741 48992U 21060AB  26145.21341712  .00000023  00000+0  25543-4 0  99972 48992  87.9096 233.3496 0002194  92.9928 267.1454 13.16595508236607

JSON: /api/v1/satellites/48992 · /tle

For live sub-satellite position, see the globe view (requires WebGL).

§ Visibility from observer

Set your observer location to see the next 7 days of passes ≥ 10°. The values pass through the URL so the page stays shareable.

No JS? Fill the form by hand. The geolocation button needs JavaScript.